Tracking 30995 objects as of 5-Jul-2025
HD Live streaming from Space Station
objects crossing your sky now

THOR ABLESTAR DEB

Track THOR ABLESTAR DEB now!
10-day predictions


NORAD ID: 643
Int'l Code: 1961-015GU
Perigee: 879.1 km
Apogee: 1,385.0 km
Inclination: 66.4 °
Period: 107.8 minutes
Semi major axis: 7503 km
RCS: 0.0691 m2 (small)
Launch date: June 29, 1961
Source: United States (US)
Launch site: AIR FORCE EASTERN TEST RANGE (AFETR)

Note: This is SATELLITE DEBRIS
Your satellite tracking list
NOAA 17 DEB
Track 1 satellite(s)




NASA's NSSDC Master Catalog

Two Line Element Set (TLE):
1   643U 61015GU  25186.27024279  .00000445  00000-0  72908-3 0  9993
2   643  66.3686 124.1012 0337161 233.7424 123.2035 13.35818934 64031
Source of the keplerian elements: AFSPC